Погода в Маркаюзе

Узбекистан     40°37′58″N   72°10′18″E
темп.,
°C
ветер,
м/с
пор.,
м/с
влажн.,
%
обл.,
%
осадки,
мм/ч
давл.,
гПа
погр.,
м
20 января, ср
ср2023:00+7юз1269100 0.0 102222
02:00+6ю3577100 0.2 1023191
05:00+6всв2385100 0.3 102578
08:00+5всв348731 0.0 102776
11:00+10всв365950 0.0 1026347
14:00+14всв244330 0.0 1024620
17:00+11всв235365 0.0 102673
20:00+9св1259100 0.0 102626
21 января, чт
чт2123:00+7всв126263 0.0 102525
02:00+5в23690 0.0 102447
05:00+4всв34420 0.0 102399
08:00+3в35390 0.0 1021117
11:00+8всв24250 0.0 1016330
14:00+11юв012079 0.0 1012602
17:00+9ю113190 0.0 101122
20:00+7св3535100 0.0 1011121
22 января, пт
пт2223:00+6в1140100 0.0 101022
02:00+5зюз2245100 0.0 101043
05:00+4сз2452100 0.1 1011176
08:00+3ююз4992100 3.3 1017573
11:00+2зюз71348100 6.3 10211299
14:00+2зсз4947100 0.6 10241501
17:00+1з2847100 0.9 10301586
20:000зюз5948100 0.2 10351215
23 января, сб
сб2323:000зюз4852100 0.3 1038928
02:00−1з1457100 0.0 1040618
05:00−2юз0255100 0.0 1041568
08:00−2всв0154100 0.0 1042668
11:000юз124694 0.0 1039992
14:00+1зюз123999 0.0 10371228
17:00+1юз234199 0.0 1039951
20:000ссв2250100 0.0 10421020
24 января, вс
вс2423:00−1всв3575100 0.1 1043382
02:00−2в4777100 0.0 1044303
05:00−2всв137398 0.0 1044147
08:00−2св247493 0.0 1045224
11:00+1св235772 0.0 1042627
14:00+2ссз22430 0.0 1038739
17:00+1ссз23470 0.0 1039353
20:00−1всв11540 0.0 103976